sat.trackr.live / text

‹ back to catalog

STARLINK-36762

NORAD 67868 · 2026-034U

PAYLOAD ACTIVE UNKNOWN

§ Identity

Operator
Country
US
Launch date
2026-02-20
Launch site
AFETR
Launch vehicle
Mass (kg)
RCS (m²)

Purposes: comms

External: N2YO · Heavens-Above · Gunter

§ Orbital elements

Epoch: 2026-09-19T19:38:04.490592Z

Period
93.85 min
Inclination
53.1610°
Eccentricity
0.0001235
Mean motion
15.34406492 rev/d
Perigee alt
461.8 km
Apogee alt
463.5 km
Semi-major
6,840.8 km
B*
5.1699e-4
RAAN
20.6947°
Arg perigee
91.7411°
Mean anomaly
268.3733°
Rev number
3,378

§ Raw data

STARLINK-367621 67868U 26034U   26262.81810753  .00017135  00000+0  51699-3 0  99902 67868  53.1610  20.6947 0001235  91.7411 268.3733 15.34406492 33786

JSON: /api/v1/satellites/67868 · /tle

For live sub-satellite position, see the globe view (requires WebGL).

§ Visibility from observer

Set your observer location to see the next 7 days of passes ≥ 10°. The values pass through the URL so the page stays shareable.

No JS? Fill the form by hand. The geolocation button needs JavaScript.